This is the latest recevied weather packets stored in our database for station/object KD9IXX-13. If no packets are shown the sender has not sent any weather packets the latest 10 day(s).
| Time | Temp. | Humidity | Pressure | Rain* | Wind** | Luminosity | Snow |
|---|---|---|---|---|---|---|---|
| 1777932302 | 23.89° C | 51% | 1000.7 hPa | 0 mm | - | 19 W/m² | - |
| 1777932002 | 24.44° C | 51% | 1000.3 hPa | 0 mm | - | 30 W/m² | - |
| 1777931702 | 24.44° C | 49% | 1000.4 hPa | 0 mm | - | 48 W/m² | - |
| 1777931402 | 24.44° C | 48% | 1000.6 hPa | 0 mm | - | 39 W/m² | - |
| 1777931102 | 24.44° C | 47% | 1000.7 hPa | 0 mm | - | 62 W/m² | - |
| 1777930802 | 24.44° C | 47% | 1000.5 hPa | 0 mm | - | 81 W/m² | - |
| 1777930503 | 24.44° C | 47% | 1000.4 hPa | 0 mm | - | 90 W/m² | - |
| 1777930203 | 25.56° C | 46% | 1000.6 hPa | 0 mm | - | 130 W/m² | - |
| 1777929902 | 26.11° C | 45% | 1000.8 hPa | 0 mm | - | 407 W/m² | - |
| 1777929602 | 26.11° C | 46% | 1000.8 hPa | 0 mm | - | 449 W/m² | - |
| 1777929302 | 25.56° C | 46% | 1001 hPa | 0 mm | - | 529 W/m² | - |
| 1777929003 | 25° C | 48% | 1001.1 hPa | 0 mm | - | 556 W/m² | - |
| 1777928702 | 25° C | 47% | 1001 hPa | 0 mm | - | 160 W/m² | - |
| 1777928402 | 25° C | 45% | 1001.4 hPa | 0 mm | - | 176 W/m² | - |
| 1777928102 | 25.56° C | 46% | 1001.3 hPa | 0 mm | - | 173 W/m² | - |
| 1777927802 | 26.11° C | 45% | 1001.4 hPa | 0 mm | - | 290 W/m² | - |
| 1777927502 | 26.67° C | 47% | 1001.5 hPa | 0 mm | - | 239 W/m² | - |
| 1777927202 | 26.67° C | 46% | 1001.6 hPa | 0 mm | - | 619 W/m² | - |
| 1777926901 | 26.67° C | 42% | 1001.2 hPa | 0 mm | - | 613 W/m² | - |
| 1777926603 | 26.67° C | 42% | 1001.1 hPa | 0 mm | - | 611 W/m² | - |
| 1777926302 | 26.11° C | 41% | 1001.3 hPa | 0 mm | - | 378 W/m² | - |
| 1777926002 | 27.22° C | 40% | 1001.2 hPa | 0 mm | - | 574 W/m² | - |
| 1777925702 | 27.22° C | 39% | 1001.4 hPa | 0 mm | - | 612 W/m² | - |
| 1777925402 | 27.22° C | 39% | 1001.6 hPa | 0 mm | - | 601 W/m² | - |
| 1777925101 | 27.22° C | 38% | 1001.5 hPa | 0 mm | - | 577 W/m² | - |
* Rain latest hour (hover to see other rain measurements)
** Current wind speed in m/s (hover to see current wind gust speed)